GW2684 Weather Reports


time (UTC)temp
C
wind
direction
speed
KPH
gust
KPH
rain 1hr
cm
rain 24hr
cm
rain mn
cm
humidity
%
barometer
mb
20260906012532 27 0 1.6 8.0 0.00 1.30 1.30 83 1011.7
20260906012033 27 0 1.6 9.7 0.00 1.30 1.30 83 1011.8
20260906011550 27 171 4.8 9.7 0.00 1.30 1.30 83 1011.7
20260906011031 27 159 4.8 9.7 0.00 1.30 1.30 83 1011.6
20260906010531 27 169 4.8 9.7 0.00 1.30 1.30 83 1011.5
20260906010050 27 146 3.2 8.0 0.00 1.30 1.30 83 1011.7
20260906005531 27 182 1.6 6.4 0.00 1.30 1.30 84 1011.7
20260906005033 27 176 1.6 6.4 0.00 1.30 1.30 84 1011.8
20260906004602 27 155 1.6 3.2 0.00 1.30 1.30 84 1011.8
20260906004032 27 171 0.0 3.2 0.00 1.30 1.30 84 1011.7
20260906003534 27 171 0.0 3.2 0.00 1.30 1.30 84 1011.6
20260906003109 27 0 0.0 3.2 0.00 1.30 1.30 84 1011.6
20260906002531 27 171 0.0 6.4 0.00 1.30 1.30 83 1011.5
20260906002036 27 0 1.6 6.4 0.00 1.30 1.30 83 1011.4
20260906001551 27 177 1.6 6.4 0.00 1.30 1.30 83 1011.5
20260906001036 27 0 1.6 6.4 0.00 1.30 1.30 83 1011.6
20260906000531 27 185 1.6 6.4 0.00 1.30 1.30 82 1011.6
20260906000106 27 176 1.6 6.4 0.00 1.30 1.30 82 1011.8
20260905235532 27 176 1.6 6.4 0.00 1.30 1.30 81 1011.7
20260905235034 28 179 0.0 1.6 0.00 1.30 1.30 81 1011.7
20260905234606 28 0 0.0 6.4 0.00 1.30 1.30 81 1011.7
20260905234034 28 0 0.0 6.4 0.00 1.30 1.30 80 1011.7
20260905233534 28 192 1.6 6.4 0.00 1.30 1.30 80 1011.6
20260905233053 28 153 1.6 6.4 0.00 1.30 1.30 80 1011.6
20260905232533 28 0 1.6 4.8 0.00 1.30 1.30 80 1011.5
20260905232033 28 150 1.6 4.8 0.00 1.30 1.30 80 1011.6
20260905231600 28 150 1.6 6.4 0.00 1.30 1.30 79 1011.7
20260905231032 28 146 1.6 8.0 0.00 1.30 1.30 79 1011.7
20260905230535 28 144 3.2 8.0 0.00 1.30 1.30 78 1011.6
20260905230104 28 157 3.2 6.4 0.00 1.30 1.30 77 1011.6
20260905225533 28 153 1.6 6.4 0.00 1.30 1.30 77 1011.6
20260905225033 28 0 0.0 4.8 0.00 1.30 1.30 77 1011.7
20260905224552 28 146 1.6 4.8 0.00 1.30 1.30 76 1011.7
20260905224033 28 144 1.6 4.8 0.00 1.30 1.30 76 1011.8
20260905223532 28 157 1.6 4.8 0.00 1.30 1.30 76 1011.7
20260905223049 28 0 0.0 3.2 0.00 1.30 1.30 75 1011.8
20260905222533 28 189 0.0 6.4 0.00 1.30 1.30 77 1011.9
20260905222032 28 0 0.0 8.0 0.00 1.30 1.30 77 1012.0
20260905221557 29 157 1.6 8.0 0.00 1.30 1.30 76 1011.9
20260905221032 29 144 3.2 9.7 0.00 1.30 1.30 76 1012.0
20260905220531 29 159 3.2 12.9 0.00 1.30 1.30 76 1012.1
20260905220055 29 169 4.8 14.5 0.00 1.30 1.30 76 1012.2
20260905215532 29 171 6.4 14.5 0.00 1.30 1.30 74 1012.1
20260905215036 30 197 4.8 9.7 0.00 1.30 1.30 75 1012.1
20260905214549 30 173 4.8 9.7 0.00 1.30 1.30 75 1012.1
20260905214032 30 178 4.8 9.7 0.00 1.30 1.30 73 1012.1
20260905213532 30 204 3.2 8.0 0.00 1.30 1.30 75 1012.3
20260905213050 30 194 3.2 9.7 0.00 1.30 1.30 74 1012.3
20260905212536 30 0 3.2 9.7 0.00 1.30 1.30 76 1012.4
20260905212033 30 178 3.2 9.7 0.00 1.30 1.30 75 1012.4
20260905211558 29 196 3.2 9.7 0.00 1.30 1.30 76 1012.5
20260905211034 29 183 4.8 9.7 0.00 1.30 1.30 78 1012.4
20260905210537 29 181 4.8 9.7 0.00 1.30 1.30 79 1012.4
20260905210055 28 194 1.6 9.7 0.00 1.30 1.30 81 1012.3
20260905205534 28 192 3.2 9.7 0.00 1.30 1.30 82 1012.4
20260905205033 28 175 4.8 9.7 0.00 1.30 1.30 81 1012.3
20260905204559 27 172 3.2 9.7 0.00 1.30 1.30 83 1012.2
20260905204032 27 184 3.2 11.3 0.03 1.30 1.30 85 1012.3
20260905203534 26 171 3.2 14.5 0.03 1.30 1.30 88 1012.4
20260905203100 26 147 6.4 14.5 0.03 1.30 1.30 87 1012.4
20260905202532 26 144 6.4 11.3 0.05 1.30 1.30 87 1012.4
20260905202033 26 157 4.8 9.7 0.08 1.30 1.30 87 1012.5
20260905201557 26 160 4.8 11.3 0.10 1.30 1.30 87 1012.4
20260905201032 26 144 4.8 11.3 0.15 1.30 1.30 87 1012.4
20260905200534 26 151 4.8 11.3 0.15 1.30 1.30 87 1012.7
20260905200059 26 132 3.2 11.3 0.20 1.30 1.30 87 1012.8
20260905195532 26 140 3.2 11.3 0.38 1.30 1.30 87 1012.8
20260905195033 26 96 4.8 16.1 0.79 1.30 1.30 87 1013.0
20260905194550 26 101 3.2 16.1 1.07 1.30 1.30 87 1012.9
20260905194036 26 105 4.8 9.7 1.09 1.27 1.27 87 1012.9
20260905193533 26 109 3.2 11.3 1.24 1.27 1.27 87 1013.0
20260905193108 26 79 3.2 16.1 1.27 1.27 1.27 86 1013.1
20260905192532 26 122 6.4 16.1 1.24 1.24 1.24 86 1013.1
20260905192035 26 86 8.0 16.1 1.22 1.22 1.22 86 1013.3
20260905191600 26 111 6.4 14.5 1.17 1.17 1.17 87 1013.3
20260905191037 27 0 0.0 6.4 1.14 1.14 1.14 87 1013.2
20260905190533 27 0 1.6 6.4 1.14 1.14 1.14 86 1013.3
20260905190059 27 0 0.0 9.7 1.09 1.09 1.09 83 1013.4
20260905185537 27 360 1.6 11.3 0.89 0.89 0.89 81 1013.7
20260905185035 28 157 4.8 11.3 0.46 0.46 0.46 81 1013.5
20260905184611 28 0 0.0 12.9 0.23 0.23 0.23 80 1013.6
20260905184035 28 0 1.6 14.5 0.15 0.15 0.15 78 1013.7
20260905183537 30 96 8.0 14.5 0.03 0.03 0.03 75 1013.5
20260905183102 30 28 6.4 11.3 0.00 0.00 0.00 71 1013.5
20260905182537 30 64 3.2 12.9 0.00 0.00 0.00 70 1013.6
20260905182036 30 62 3.2 14.5 0.00 0.00 0.00 69 1013.6
20260905181600 30 45 6.4 14.5 0.00 0.00 0.00 70 1013.6
20260905181033 31 52 6.4 16.1 0.00 0.00 0.00 70 1013.6
20260905180536 31 32 8.0 16.1 0.00 0.00 0.00 72 1013.7
20260905175537 31 64 9.7 17.7 0.00 3.68 0.00 69 1013.8
20260905175036 32 20 6.4 12.9 0.00 3.68 0.00 63 1013.8
20260905174550 32 219 3.2 11.3 0.00 3.68 0.00 66 1013.9
20260905174036 31 16 4.8 11.3 0.00 3.68 0.00 66 1014.0
20260905173537 31 227 3.2 9.7 0.00 3.68 0.00 67 1013.9
20260905173058 31 223 3.2 8.0 0.00 3.68 0.00 66 1013.9
20260905172536 31 170 3.2 9.7 0.00 3.68 0.00 68 1013.9
20260905172037 31 198 3.2 9.7 0.00 3.68 0.00 68 1014.0
20260905171558 31 148 0.0 8.0 0.00 3.68 0.00 73 1014.1
20260905171036 31 169 1.6 9.7 0.00 3.68 0.00 70 1014.1
20260905170538 30 199 3.2 9.7 0.00 3.68 0.00 72 1014.0
20260905170058 30 205 4.8 9.7 0.00 3.68 0.00 71 1014.1
20260905165539 30 217 4.8 12.9 0.00 4.24 0.00 71 1014.1
20260905165040 31 209 4.8 14.5 0.00 4.24 0.00 70 1014.2
20260905164554 31 183 4.8 14.5 0.00 4.24 0.00 72 1014.2
20260905164036 31 171 1.6 8.0 0.00 4.24 0.00 72 1014.3
20260905163535 31 111 1.6 8.0 0.00 4.24 0.00 68 1014.3
20260905163100 31 244 3.2 8.0 0.00 4.24 0.00 69 1014.4
20260905162538 31 227 3.2 8.0 0.00 4.24 0.00 70 1014.4
20260905162036 30 246 3.2 9.7 0.00 4.24 0.00 69 1014.5
20260905161557 30 213 3.2 9.7 0.00 4.24 0.00 71 1014.5
20260905161036 30 219 3.2 8.0 0.00 4.24 0.00 74 1014.4
20260905160533 30 203 3.2 8.0 0.00 4.24 0.00 73 1014.4
20260905160054 30 246 3.2 8.0 0.00 4.24 0.00 73 1014.4
20260905155539 30 0 0.0 0.0 0.00 4.24 0.00 74 1014.4
20260905155039 29 0 0.0 0.0 0.00 4.24 0.00 74 1014.4
20260905154605 29 0 0.0 6.4 0.00 4.24 0.00 74 1014.4
20260905154036 29 0 0.0 6.4 0.00 4.24 0.00 73 1014.3
20260905153536 30 24 0.0 6.4 0.00 4.24 0.00 74 1014.2
20260905153056 30 215 1.6 8.0 0.00 4.24 0.00 74 1014.2
20260905152536 30 0 0.0 8.0 0.00 4.24 0.00 75 1014.2
20260905152033 30 248 3.2 8.0 0.00 4.24 0.00 73 1014.2
20260905151556 30 244 3.2 8.0 0.00 4.24 0.00 76 1014.2
20260905151032 29 229 1.6 6.4 0.00 4.24 0.00 75 1014.1
20260905150539 30 229 3.2 8.0 0.00 4.24 0.00 76 1014.1
20260905150100 30 205 1.6 11.3 0.00 4.24 0.00 77 1014.3
20260905145533 30 219 3.2 11.3 0.00 4.24 0.00 76 1014.3
20260905145033 30 219 6.4 11.3 0.00 4.24 0.00 78 1014.2
20260905144557 30 0 4.8 8.0 0.00 4.24 0.00 77 1014.2
20260905144039 29 217 0.0 8.0 0.00 4.24 0.00 78 1014.2
20260905143536 29 152 0.0 4.8 0.00 4.24 0.00 77 1014.2
20260905143059 29 0 1.6 4.8 0.00 4.24 0.00 77 1014.2
20260905142537 29 0 1.6 4.8 0.00 4.24 0.00 77 1014.3
20260905142036 29 19 0.0 4.8 0.00 4.24 0.00 77 1014.4
20260905141554 29 230 0.0 4.8 0.00 4.24 0.00 77 1014.4
20260905141036 29 0 0.0 4.8 0.00 4.24 0.00 77 1014.4
20260905140533 29 0 0.0 4.8 0.00 4.24 0.00 77 1014.3
20260905140050 30 0 0.0 0.0 0.00 4.24 0.00 77 1014.3
20260905135536 29 0 0.0 1.6 0.00 4.24 0.00 78 1014.2
20260905135033 29 0 0.0 3.2 0.00 4.24 0.00 79 1014.2
20260905134556 29 0 0.0 4.8 0.00 4.24 0.00 80 1014.1
20260905134036 28 123 0.0 4.8 0.00 4.24 0.00 80 1014.0
20260905133538 28 87 0.0 4.8 0.00 4.24 0.00 81 1014.0
20260905133054 28 0 0.0 4.8 0.00 4.24 0.00 81 1014.1
20260905132540 28 0 0.0 4.8 0.00 4.24 0.00 82 1014.1
20260905132040 27 0 0.0 0.0 0.00 4.24 0.00 83 1014.1
20260905131559 27 0 0.0 4.8 0.00 4.24 0.00 84 1014.1
20260905131037 27 0 0.0 6.4 0.00 4.24 0.00 85 1014.1
20260905130536 27 68 1.6 6.4 0.00 4.24 0.00 86 1014.1
20260905130134 27 76 1.6 4.8 0.00 4.24 0.00 86 1014.0
20260905125532 26 0 1.6 4.8 0.00 4.24 0.00 87 1014.0
20260905125037 26 59 0.0 0.0 0.00 4.24 0.00 87 1014.0
20260905124602 26 0 0.0 4.8 0.00 4.24 0.00 88 1013.9
20260905124037 25 0 1.6 4.8 0.00 4.24 0.00 89 1013.9
20260905123536 25 65 1.6 4.8 0.00 4.24 0.00 90 1013.9
20260905123059 25 124 0.0 4.8 0.00 4.24 0.00 91 1013.8
20260905122536 25 0 0.0 4.8 0.00 4.24 0.00 90 1013.8
20260905122036 25 0 0.0 4.8 0.00 4.24 0.00 91 1013.7
20260905121551 25 64 1.6 3.2 0.00 4.24 0.00 91 1013.7
20260905121033 25 52 0.0 4.8 0.00 4.24 0.00 92 1013.8
20260905120540 24 52 1.6 4.8 0.00 4.24 0.00 92 1013.8
20260905120051 24 66 0.0 1.6 0.00 4.24 0.00 93 1013.6
20260905115536 23 0 0.0 0.0 0.00 4.27 0.00 93 1013.6
20260905115036 23 0 0.0 0.0 0.00 4.27 0.00 93 1013.6
20260905114559 23 0 0.0 0.0 0.00 4.27 0.00 93 1013.6
20260905114036 23 0 0.0 0.0 0.00 4.27 0.00 93 1013.5
20260905113537 23 0 0.0 0.0 0.00 4.27 0.00 93 1013.5
20260905113054 23 0 0.0 0.0 0.00 4.27 0.00 93 1013.4
20260905112536 23 0 0.0 0.0 0.00 4.27 0.00 93 1013.4
20260905112037 23 0 0.0 0.0 0.00 4.27 0.00 93 1013.3
20260905111630 23 0 0.0 0.0 0.00 4.27 0.00 93 1013.3
20260905111035 23 0 0.0 0.0 0.00 4.27 0.00 93 1013.2
20260905110533 23 0 0.0 0.0 0.00 4.27 0.00 93 1013.2
20260905110059 23 0 0.0 0.0 0.00 4.27 0.00 93 1013.2
20260905105537 23 0 0.0 1.6 0.00 4.27 0.00 93 1013.2
20260905105038 23 0 0.0 3.2 0.00 4.27 0.00 93 1013.2
20260905104557 23 0 0.0 3.2 0.00 4.27 0.00 93 1013.2
20260905104036 23 27 0.0 4.8 0.00 4.27 0.00 93 1013.2
20260905103536 23 27 1.6 4.8 0.00 4.27 0.00 93 1013.2
20260905103055 23 0 1.6 4.8 0.00 4.27 0.00 93 1013.3
20260905102535 23 27 0.0 3.2 0.00 4.27 0.00 93 1013.3
20260905102036 23 0 0.0 0.0 0.00 4.27 0.00 93 1013.2
20260905101602 23 0 0.0 0.0 0.00 4.27 0.00 93 1013.2
20260905101033 23 0 0.0 0.0 0.00 4.27 0.00 93 1013.2
20260905100533 23 0 0.0 0.0 0.00 4.27 0.00 93 1013.1
20260905100110 23 0 0.0 0.0 0.00 4.27 0.00 93 1013.1
20260905095532 23 0 0.0 0.0 0.00 4.27 0.00 93 1013.1
20260905095032 23 0 0.0 3.2 0.00 4.27 0.00 93 1013.2
20260905094550 23 0 0.0 3.2 0.00 4.27 0.00 93 1013.1
20260905094036 24 27 0.0 4.8 0.00 4.27 0.00 92 1013.1
20260905093533 24 27 1.6 4.8 0.00 4.27 0.00 92 1013.1
20260905093059 24 0 0.0 0.0 0.00 4.27 0.00 92 1013.1
20260905092534 24 0 0.0 0.0 0.00 4.27 0.00 93 1013.1
20260905092033 24 0 0.0 0.0 0.00 4.27 0.00 92 1013.1
20260905091600 24 0 0.0 0.0 0.00 4.27 0.00 93 1013.1
20260905091033 24 0 0.0 0.0 0.00 4.27 0.00 92 1013.0
20260905090533 24 0 0.0 0.0 0.00 4.27 0.00 92 1013.0
20260905090048 24 0 0.0 0.0 0.00 4.27 0.00 92 1013.0
20260905085535 24 0 0.0 0.0 0.00 4.27 0.00 93 1013.0
20260905085036 24 0 0.0 0.0 0.00 4.27 0.00 93 1012.9
20260905084559 24 0 0.0 0.0 0.00 4.27 0.00 93 1012.9
20260905084033 24 0 0.0 0.0 0.00 4.27 0.00 93 1013.0
20260905083533 24 0 0.0 0.0 0.00 4.27 0.00 93 1012.9
20260905083054 24 0 0.0 0.0 0.00 4.27 0.00 92 1012.9
20260905082533 24 0 0.0 0.0 0.00 4.27 0.00 92 1012.8
20260905082035 24 0 0.0 0.0 0.00 4.27 0.00 92 1012.9
20260905081605 24 0 0.0 0.0 0.00 4.27 0.00 92 1012.8
20260905081032 24 0 0.0 0.0 0.00 4.27 0.00 92 1012.8
20260905080533 24 0 0.0 0.0 0.00 4.27 0.00 92 1012.7
20260905075535 24 0 0.0 0.0 0.00 4.27 0.00 92 1012.8
20260905075032 24 0 0.0 0.0 0.00 4.27 0.00 92 1012.9
20260905074558 24 0 0.0 0.0 0.00 4.27 0.00 92 1012.9
20260905074035 24 0 0.0 0.0 0.00 4.27 0.00 92 1012.9
20260905073533 24 0 0.0 0.0 0.00 4.27 0.00 92 1013.0
20260905073053 24 0 0.0 0.0 0.00 4.27 0.00 92 1013.0
20260905072533 24 0 0.0 0.0 0.00 4.27 0.00 92 1012.9
20260905072032 24 0 0.0 4.8 0.00 4.27 0.00 92 1013.0
20260905071555 24 0 0.0 4.8 0.00 4.27 0.00 92 1012.9
20260905071033 24 36 1.6 4.8 0.00 4.27 0.00 93 1012.9
20260905070532 24 36 1.6 4.8 0.00 4.27 0.00 93 1013.0
20260905070101 24 0 0.0 0.0 0.00 4.27 0.00 92 1012.9
20260905065534 24 0 0.0 0.0 0.00 4.27 0.00 92 1012.8
20260905065032 24 0 0.0 0.0 0.00 4.27 0.00 92 1012.8
20260905064600 24 0 0.0 0.0 0.00 4.27 0.00 92 1012.6
20260905064033 24 0 0.0 0.0 0.00 4.27 0.00 92 1012.6
20260905063537 24 0 0.0 0.0 0.00 4.27 0.00 92 1012.6
20260905063100 24 0 0.0 0.0 0.00 4.27 0.00 92 1012.6
20260905062536 24 0 0.0 0.0 0.00 4.27 0.00 92 1012.6
20260905062037 24 0 0.0 0.0 0.00 4.27 0.00 92 1012.7
20260905061611 24 0 0.0 0.0 0.00 4.27 0.00 92 1012.7
20260905061036 24 0 0.0 0.0 0.00 4.27 0.00 92 1012.7
20260905060536 24 0 0.0 0.0 0.00 4.27 0.00 92 1012.8
20260905060050 24 0 0.0 0.0 0.00 4.27 0.00 92 1012.8
20260905055536 24 0 0.0 0.0 0.00 4.65 0.00 92 1012.8
20260905055037 24 0 0.0 0.0 0.00 4.65 0.00 92 1012.9
20260905054558 24 0 0.0 0.0 0.00 4.65 0.00 92 1012.8
20260905054037 24 0 0.0 0.0 0.00 4.65 0.00 92 1012.7
20260905053536 24 0 0.0 0.0 0.00 4.65 0.00 92 1012.8
20260905053057 24 0 0.0 0.0 0.00 4.65 0.00 92 1012.9
20260905052537 24 0 0.0 0.0 0.00 4.65 0.00 92 1013.0
20260905052037 24 0 0.0 0.0 0.00 4.65 0.00 92 1013.1
20260905051551 24 0 0.0 0.0 0.00 4.65 0.00 92 1013.0
20260905051036 24 0 0.0 0.0 0.00 4.65 0.00 91 1013.0
20260905050534 24 0 0.0 0.0 0.00 4.65 0.00 91 1013.2
20260905050050 24 0 0.0 0.0 0.00 4.65 0.00 91 1013.2
20260905045536 24 0 0.0 1.6 0.00 4.72 4.65 91 1013.3
20260905045036 24 0 0.0 1.6 0.00 4.72 4.65 91 1013.5
20260905044605 24 0 0.0 1.6 0.00 4.72 4.65 91 1013.5
20260905044036 24 0 0.0 0.0 0.00 4.72 4.65 91 1013.5
20260905043536 24 0 0.0 0.0 0.00 4.72 4.65 91 1013.5
20260905043053 24 0 0.0 0.0 0.00 4.72 4.65 91 1013.6
20260905042540 24 0 0.0 0.0 0.00 4.72 4.65 91 1013.8
20260905042037 24 0 0.0 0.0 0.00 4.72 4.65 91 1013.8
20260905041601 24 0 0.0 3.2 0.00 4.72 4.65 91 1013.8
20260905041036 24 0 0.0 3.2 0.00 4.72 4.65 91 1013.9
20260905040538 24 0 0.0 3.2 0.00 4.72 4.65 91 1013.8
20260905040059 24 17 1.6 3.2 0.00 4.72 4.65 91 1013.8
20260905035535 24 0 0.0 3.2 0.00 4.72 4.65 91 1013.9
20260905035036 24 0 0.0 3.2 0.00 4.72 4.65 91 1014.1
20260905034554 24 17 1.6 4.8 0.00 4.72 4.65 91 1014.2
20260905034036 25 25 0.0 4.8 0.00 4.72 4.65 91 1014.1
20260905033534 24 25 1.6 4.8 0.00 4.72 4.65 91 1014.2
20260905033050 25 46 1.6 3.2 0.00 4.72 4.65 90 1014.3
20260905032535 25 26 0.0 3.2 0.00 4.72 4.65 90 1014.3
20260905032033 25 0 0.0 1.6 0.00 4.72 4.65 90 1014.3
20260905031550 25 0 0.0 3.2 0.00 4.72 4.65 90 1014.2
20260905031034 25 0 0.0 3.2 0.00 4.72 4.65 90 1014.2
20260905030536 25 19 1.6 4.8 0.00 4.72 4.65 90 1014.2
20260905030120 25 40 1.6 4.8 0.00 4.72 4.65 90 1014.2
20260905025534 25 66 0.0 4.8 0.00 4.72 4.65 90 1014.2
20260905025034 25 54 0.0 6.4 0.00 4.72 4.65 90 1014.3
20260905024559 25 0 0.0 6.4 0.00 4.72 4.65 90 1014.3
20260905024034 25 40 3.2 6.4 0.00 4.72 4.65 90 1014.3
20260905023534 25 57 1.6 6.4 0.00 4.72 4.65 90 1014.3
20260905023053 25 56 1.6 6.4 0.00 4.72 4.65 90 1014.3
20260905022533 25 55 1.6 6.4 0.00 4.72 4.65 90 1014.2
20260905022034 25 72 0.0 6.4 0.00 4.72 4.65 90 1014.1
20260905021550 25 51 3.2 6.4 0.00 4.72 4.65 89 1014.2
20260905021033 25 24 1.6 4.8 0.00 4.72 4.65 89 1014.2
20260905020534 25 57 1.6 4.8 0.00 4.72 4.65 89 1014.2
20260905020100 25 32 1.6 4.8 0.00 4.72 4.65 89 1014.2
20260905015533 25 22 1.6 4.8 0.00 4.72 4.65 89 1014.2
20260905015037 25 0 0.0 6.4 0.00 4.72 4.65 89 1014.1
20260905014556 25 0 0.0 6.4 0.00 4.72 4.65 89 1014.0
20260905014035 25 5 1.6 4.8 0.00 4.72 4.65 88 1013.9
20260905013534 25 5 1.6 4.8 0.00 4.72 4.65 88 1013.9
20260905013053 25 5 0.0 3.2 0.00 4.72 4.65 88 1013.9